Location: Brantley
(31.5822°N, 86.2569°W)
Time: 12:56:20
(UTC+00:00)

Vanguard 3 - Pass Details

Date: 22 February 2026
Orbit: 507 x 3205 km, 33.4° (Epoch: 17 March)

Event Time Altitude Azimuth Distance (km) Brightness Sun altitude
Rises 20:45:27 0° 252° (WSW) 6,643 12.7 32.4°
Reaches altitude 10° 20:50:25 10° 252° (WSW) 5,299 12.6 31.6°
Maximum altitude 21:04:49 86° 166° (SSE) 1,695 9.3 29.1°
Drops below altitude 10° 21:12:41 10° 78° (ENE) 3,056 9.7 27.7°
Sets 21:14:49 0° 78° (ENE) 3,763 10.1 27.3°
